CAPE
394 585 642 725 913 1063 996 1067 1095 1119 1187 1206 1226 1193 1134 1105 1124 942 895 1146 1511 1871 1990 1773 1362 1017 884 861 892 1028 1037 706 550 0 0 0 0 12 603 597 884 1077 949 1122 1255 1229 1022 1080 1217 1418 1620 1695 1556 1487 1335 1184 1100 979 885 753 676 602 554
584 687 745 702 697 653 694 892 952 996 1093 1148 1156 1153 1139 1112 1166 1195 1000 956 1213 1621 1875 1943 1770 1507 1276 1149 948 723 685 793 570 247 0 0 0 0 115 675 875 957 1072 915 1087 1087 1113 1002 1106 1363 1551 1643 1743 1640 1496 1379 1283 1146 1022 902 769 713 635
560 787 662 747 798 756 1031 1148 1157 1134 1063 1050 1060 1045 1085 1111 1127 1153 1188 1130 1031 1282 1660 1849 1911 1788 1665 1546 1424 1204 837 480 386 224 0 0 0 0 9 66 760 896 892 941 1131 1136 1190 1070 1121 1407 1558 1708 1756 1707 1632 1476 1371 1310 1208 1049 933 801 723
1 230 714 913 1060 1082 1033 1044 973 855 828 816 780 823 941 999 1005 1004 1025 1094 1085 1050 1331 1652 1812 1841 1735 1602 1460 1301 1136 796 43 0 0 0 40 117 3 4 94 799 846 868 1205 1228 1195 1293 1142 1356 1538 1748 1842 1835 1675 1583 1490 1428 1348 1234 1099 884 807
7 12 95 423 732 889 970 999 1029 1010 1001 789 691 696 724 888 980 986 994 1021 1068 1058 1075 1268 1517 1702 1780 1717 1608 1531 1394 1156 272 3 0 0 0 9 11 2 0 3 378 550 811 1200 1182 1187 1143 1069 1406 1643 1771 1809 1787 1663 1627 1569 1478 1407 1290 1068 932
6 8 11 24 146 541 784 901 958 974 998 1025 1049 967 631 668 723 908 1006 1024 1036 1101 1076 969 1051 1337 1571 1646 1646 1602 1473 1216 665 396 353 356 314 17 240 21 12 2 1 2 1 613 1140 1166 1160 1062 1251 1633 1753 1698 1612 1678 1657 1608 1596 1571 1474 1250 1112
0 0 0 0 10 20 298 641 755 790 815 876 968 1114 1151 845 640 686 803 971 1018 1033 1061 1021 956 994 1151 1250 1346 1454 1500 1394 1026 718 573 509 497 525 481 333 40 28 7 0 0 0 395 884 1009 986 1122 1611 1696 1685 1604 1695 1702 1606 1569 1582 1670 1606 1364
0 0 0 0 0 8 20 70 353 588 692 770 830 925 1116 1152 676 591 667 800 969 1040 1031 1001 922 808 758 972 1238 1459 1542 1575 1414 1220 1028 704 463 421 485 424 300 46 26 2 0 0 0 78 492 724 958 1236 1644 1660 1661 1668 1777 1665 1754 1611 1642 1637 1559
1 0 1 1 0 0 6 10 21 201 445 568 661 722 929 1204 1128 621 523 628 809 949 1013 998 896 731 674 748 1033 1306 1514 1574 1523 1302 1176 1028 768 514 403 352 228 76 240 172 0 0 388 46 0 0 520 590 642 961 1409 1537 1702 1744 1716 1676 1635 1621 1599
0 0 0 0 0 0 0 0 0 1 34 361 586 662 728 1005 1223 1155 717 492 599 773 785 798 787 751 725 649 760 1006 1252 1428 1404 1242 1055 974 919 757 509 335 272 325 336 337 228 531 555 162 0 0 58 223 239 179 890 1232 1464 1577 1651 1650 1666 1620 1546
0 0 0 0 0 0 0 0 0 0 0 6 324 726 804 818 923 1117 1125 737 479 524 663 739 802 818 762 634 709 882 1086 1169 1170 1034 837 698 727 714 660 501 370 243 345 376 73 494 550 424 12 15 27 185 344 301 583 798 942 1311 1415 1499 1547 1634 1592
0 0 0 0 0 0 0 0 0 0 0 0 12 269 801 897 856 988 1113 1146 808 487 491 570 718 844 860 858 836 947 981 928 797 693 732 725 632 596 636 614 506 214 73 26 10 0 0 286 39 34 79 233 642 559 608 818 709 952 1246 1430 1511 1539 1610
0 0 0 0 0 0 0 0 0 0 0 0 0 0 130 606 780 789 900 1012 1047 873 506 536 570 627 704 745 753 772 720 662 627 617 653 733 814 801 761 705 608 472 338 82 39 13 2 14 59 99 226 370 545 823 812 905 750 713 1074 1287 1368 1484 1518
0 0 0 0 0 0 0 0 0 0 0 0 0 0 0 129 566 711 747 787 818 860 1048 1138 972 555 604 662 688 778 827 803 789 799 883 958 1013 976 1066 1168 995 752 721 602 456 367 308 38 80 139 443 486 488 648 896 910 953 878 860 1034 1192 1266 1396
0 0 0 0 0 0 0 0 0 0 0 0 0 0 0 0 42 316 314 475 520 536 529 666 745 804 645 816 1073 1267 1294 1306 1320 1332 1356 1394 1412 1406 1356 1441 1508 1089 955 1006 859 642 483 351 284 327 474 571 603 597 737 941 940 931 946 847 974 1144 1225
0 0 0 0 0 0 0 0 0 0 0 0 0 0 0 0 0 57 345 366 294 268 266 356 470 812 1095 1175 1250 1439 1534 1534 1506 1512 1528 1556 1606 1650 1628 1493 1510 1412 1015 912 1145 1191 1086 989 898 696 479 583 699 750 811 861 904 951 867 770 873 988 1058
0 0 0 0 0 0 0 0 0 0 0 0 0 0 0 0 0 0 0 173 197 105 121 157 303 448 714 1094 1371 1461 1477 1439 1385 1277 1213 1267 1422 1588 1729 1761 1479 1408 1334 1138 776 873 1148 1257 1173 1024 734 561 691 778 847 872 845 752 686 695 770 938 1030
0 0 0 0 0 0 0 0 0 0 0 0 0 0 0 0 0 0 0 0 16 46 57 57 92 271 382 495 686 963 1253 1418 1389 1217 1020 901 1038 1153 1444 1576 1677 1434 1344 1305 1149 960 660 734 1016 1138 1074 886 655 712 735 761 760 716 682 695 754 859 955
0 0 0 0 0 0 0 0 0 0 0 0 0 0 0 0 0 0 0 0 0 29 62 63 47 142 275 385 450 504 578 702 901 1046 944 741 790 988 1283 1393 1553 1680 1425 1296 1254 1123 954 695 518 614 856 996 974 793 755 790 819 816 830 846 804 856 888
0 0 0 0 0 0 0 0 0 0 0 0 0 0 0 0 0 0 0 0 0 0 75 136 122 74 79 341 374 433 454 456 600 691 748 614 664 820 920 1016 1333 1637 1626 1382 1228 1187 1066 933 776 572 484 615 721 786 782 834 881 901 904 886 903 933 974
0 0 1 2 2 0 0 0 0 0 0 0 0 0 0 0 0 0 0 0 0 0 0 38 140 207 312 403 492 503 474 547 624 780 868 917 959 948 956 1298 1470 1664 1668 1623 1363 1201 1161 1062 928 834 674 479 540 602 671 761 822 843 840 877 885 935 977
3 4 4 4 6 7 7 4 0 0 0 0 0 0 0 0 0 0 0 0 0 0 0 0 46 165 281 360 466 544 557 570 647 698 794 941 1034 902 1038 1353 1538 1692 1786 1756 1590 1326 1206 1143 1028 905 790 640 491 554 618 692 775 798 798 757 785 818 913
5 4 5 2 5 10 9 8 5 1 0 0 0 0 0 0 0 0 0 0 0 0 0 0 0 17 39 328 387 498 586 635 688 738 842 943 979 867 1098 1347 1506 1650 1743 1755 1718 1528 1279 1258 1207 1084 952 829 655 516 549 636 703 751 738 730 716 754 877
4 6 5 6 8 7 7 8 7 2 0 0 0 0 0 0 0 0 0 0 0 0 0 0 0 0 0 0 8 356 526 625 706 773 806 826 826 991 1178 1368 1492 1624 1696 1700 1690 1653 1445 1252 1270 1283 1241 1143 1010 822 656 608 671 727 768 730 741 773 849
4 2 7 5 6 7 5 4 4 3 2 0 0 0 0 0 0 0 0 0 0 0 0 0 0 0 0 0 0 21 356 556 698 787 824 821 930 1016 1085 1206 1382 1528 1615 1614 1595 1599 1539 1429 1309 1271 1335 1310 1240 1123 938 720 668 755 817 839 846 871 958
0 2 3 4 2 2 3 3 3 2 0 0 0 0 0 0 0 0 0 0 0 0 0 0 0 0 0 0 0 0 0 204 490 603 810 940 993 1039 1035 965 1028 1327 1514 1577 1588 1572 1530 1491 1422 1305 1182 1312 1255 1173 1100 978 801 757 905 958 949 1013 1070
1 4 6 7 4 2 3 1 0 0 0 0 0 0 0 0 0 0 0 0 0 0 0 0 0 0 0 0 0 0 0 0 31 267 567 815 987 1101 1166 1178 1121 1062 1111 1221 1370 1521 1631 1548 1455 1368 1286 1282 1344 1305 1263 1196 1116 1064 1006 1012 1025 1140 1238
1 5 6 9 4 3 2 0 0 0 0 0 0 0 0 0 0 0 0 0 0 0 0 0 0 0 0 0 0 0 0 0 0 16 145 413 718 952 1136 1241 1269 1191 1004 973 1228 1372 1504 1612 1548 1434 1343 1225 1393 1424 1384 1355 1315 1259 1230 1179 1077 1205 1300
1 6 6 5 6 4 5 3 0 0 0 0 0 0 0 0 0 0 0 0 0 0 0 0 0 0 0 0 0 0 0 0 0 0 10 98 233 528 806 1015 1046 1236 1355 972 817 1053 1320 1513 1667 1528 1453 1357 1184 1142 1361 1451 1465 1383 1081 1187 1303 1479 1535
0 2 1 3 6 4 3 4 4 1 0 0 0 0 0 0 0 0 0 0 0 0 0 0 0 0 0 0 0 0 0 0 0 0 0 0 106 309 386 520 728 888 920 844 759 1020 1276 1540 1696 1632 1507 1404 1317 1222 1120 1168 1331 1484 1511 1386 1350 1393 1379
0 0 0 0 10 3 0 1 2 5 3 0 0 0 0 0 0 0 0 0 0 0 0 0 0 0 0 0 0 0 0 0 0 0 0 0 3 85 436 609 659 661 577 642 1004 1270 1424 1649 1747 1643 1538 1422 1290 1187 1140 1114 1083 1007 935 1157 1288 1394 1476
0 0 0 0 17 3 2 4 4 2 2 3 3 1 0 0 0 0 0 0 0 0 0 4 8 12 15 5 4 0 3 15 4 0 0 0 118 226 242 310 525 689 757 693 777 1191 1442 1663 1706 1598 1463 1306 1162 1035 1020 1085 1070 1022 1004 947 898 876 812
0 0 0 0 12 3 4 3 2 2 2 3 3 2 2 2 2 0 0 0 0 0 0 0 2 17 17 8 0 10 13 16 16 2 48 173 291 248 194 249 240 234 326 569 834 883 1176 1559 1638 1579 1390 1191 1034 937 963 1028 978 963 960 956 921 922 899
0 0 0 4 5 2 2 3 1 1 3 3 2 1 0 1 1 2 3 3 3 5 5 6 3 4 28 31 26 15 1 0 0 9 101 184 234 218 131 98 213 292 358 570 699 786 1114 1400 1328 1367 1360 1208 1034 976 1016 969 851 889 906 856 809 788 772
0 0 0 16 1 0 0 2 1 1 3 4 3 2 1 2 2 2 2 3 3 5 4 1 1 1 3 2 16 49 17 5 0 0 69 181 229 219 173 165 254 383 440 484 645 871 1188 1223 1245 1326 1248 1181 1153 1172 1162 1039 930 882 802 756 775 776 782
0 0 3 14 0 0 0 0 0 0 1 3 4 3 2 3 2 2 1 1 2 2 2 3 0 1 0 0 0 0 1 0 0 8 14 6 76 257 355 347 392 456 517 730 998 1147 1159 1198 1188 920 811 1028 1206 1400 1414 1296 1127 1017 961 889 864 836 669
0 0 3 5 1 0 0 0 0 0 0 1 3 3 2 3 2 2 2 2 2 1 0 1 2 1 0 0 0 0 0 0 0 66 86 81 56 156 335 561 690 711 730 924 1127 1226 1237 1265 1077 661 576 829 1136 1375 1474 1436 1374 1301 1221 824 885 898 806
Wind_Speed
25 27 25 21 25 29 28 23 23 24 25 27 30 30 32 32 31 30 32 35 37 36 34 30 29 29 29 30 29 27 26 25 23 nan nan nan nan nan 19 16 19 21 16 16 15 10 11 10 7 7 7 5 5 5 4 3 4 4 4 3 4 3 3
25 25 25 21 19 22 23 23 23 24 26 27 30 29 30 32 32 31 32 32 32 32 32 29 29 29 27 26 27 27 26 25 24 23 nan nan nan nan 24 20 20 20 18 18 17 19 16 13 11 7 4 6 4 4 4 4 4 5 5 5 6 6 5
34 31 30 25 19 15 16 19 22 24 27 29 30 31 29 31 34 33 32 32 33 32 30 28 29 28 27 26 25 26 26 26 26 24 nan nan nan nan nan nan 19 22 22 22 20 19 20 16 11 6 4 3 2 3 4 3 4 5 6 6 7 8 7
nan 31 31 29 25 20 17 16 16 19 25 28 31 30 28 29 32 33 31 31 32 31 30 30 29 28 28 28 27 27 26 25 nan nan nan nan nan 23 nan nan nan 18 17 19 17 17 17 17 17 13 9 5 2 4 2 2 3 4 5 6 7 7 8
nan nan nan 28 26 23 23 20 17 17 23 29 32 32 29 29 30 30 29 29 30 31 31 32 32 30 30 30 29 28 26 25 26 nan nan nan nan nan nan nan nan nan 18 18 18 17 15 15 13 11 8 9 10 7 9 4 3 3 4 5 6 7 8
nan nan nan nan 26 26 28 26 21 17 21 29 33 34 33 31 31 28 26 26 30 33 34 33 31 30 30 30 30 30 29 27 26 25 24 23 24 nan 23 nan nan nan nan nan nan 18 15 16 14 14 11 10 7 7 8 7 4 3 3 4 6 7 8
nan nan nan nan nan nan 28 26 22 19 21 28 35 35 37 36 34 30 28 27 30 34 35 33 33 32 31 30 31 31 29 28 29 26 24 24 25 24 27 24 nan nan nan nan nan nan 19 20 18 14 13 12 12 11 12 8 6 5 2 2 5 6 8
nan nan nan nan nan nan nan nan 22 20 20 29 35 38 39 36 34 31 29 30 31 33 34 34 33 31 31 32 31 30 31 31 29 26 25 25 24 26 28 25 23 nan nan nan nan nan nan nan 19 17 15 14 14 13 11 10 8 1 3 3 4 6 7
nan nan nan nan nan nan nan nan nan 21 19 26 35 39 39 38 35 31 29 29 32 33 34 33 33 33 32 32 32 31 29 30 26 24 24 24 24 26 28 27 26 nan 23 21 nan nan 18 nan nan nan 14 13 13 12 13 10 7 5 3 3 3 6 7
nan nan nan nan nan nan nan nan nan nan nan 23 29 36 37 37 35 32 31 31 33 34 35 36 36 34 33 32 31 29 27 27 25 23 25 24 25 28 30 28 25 25 25 23 20 19 20 21 nan nan nan 13 14 12 13 10 7 5 4 4 3 4 7
nan nan nan nan nan nan nan nan nan nan nan nan 25 28 33 34 34 32 32 33 35 37 36 37 36 35 35 33 30 28 26 28 25 26 25 24 25 28 29 28 27 26 25 22 nan 18 20 21 nan nan nan 16 17 12 13 10 8 7 6 6 5 6 7
nan nan nan nan nan nan nan nan nan nan nan nan nan 27 28 31 33 33 33 34 36 36 37 37 36 36 35 33 32 30 30 30 27 25 25 24 24 26 25 23 25 24 nan nan nan nan nan 23 nan nan nan 19 18 15 14 13 11 12 10 8 6 6 8
nan nan nan nan nan nan nan nan nan nan nan nan nan nan 26 27 30 31 32 33 35 37 38 38 36 36 36 34 32 31 30 29 29 29 30 29 27 24 23 22 22 23 25 nan nan nan nan nan nan nan 24 21 19 17 17 15 10 10 12 9 9 8 9
nan nan nan nan nan nan nan nan nan nan nan nan nan nan nan 26 28 31 32 32 33 35 37 37 36 35 34 31 29 28 29 29 30 34 37 33 29 25 23 22 23 24 27 25 22 21 22 nan nan 25 26 24 21 21 20 17 13 12 18 15 13 12 12
nan nan nan nan nan nan nan nan nan nan nan nan nan nan nan nan nan 31 33 33 34 36 37 37 35 33 29 25 24 28 30 32 33 36 38 33 28 26 25 24 24 25 27 24 22 21 21 23 25 26 26 26 24 23 22 20 16 16 14 20 16 18 18
nan nan nan nan nan nan nan nan nan nan nan nan nan nan nan nan nan nan 34 36 37 40 40 37 36 34 29 25 24 28 35 37 35 35 34 29 25 26 27 27 26 27 29 26 23 22 22 22 24 24 24 28 26 25 25 22 23 19 18 19 20 19 19
nan nan nan nan nan nan nan nan nan nan nan nan nan nan nan nan nan nan nan 36 40 44 45 43 41 37 30 28 30 31 37 41 39 37 35 31 28 28 28 28 29 29 28 25 23 23 24 24 24 23 24 27 29 29 29 27 24 23 23 21 23 21 20
nan nan nan nan nan nan nan nan nan nan nan nan nan nan nan nan nan nan nan nan nan nan nan nan nan 39 31 29 29 32 37 41 40 39 38 35 31 33 33 30 28 29 29 25 23 23 23 24 25 25 24 26 29 31 34 33 28 28 28 24 24 24 23
nan nan nan nan nan nan nan nan nan nan nan nan nan nan nan nan nan nan nan nan nan nan nan nan nan 42 34 32 31 31 34 38 40 37 34 30 31 33 32 30 28 27 27 24 22 23 23 23 25 25 25 26 29 32 34 35 35 32 29 26 27 28 27
nan nan nan nan nan nan nan nan nan nan nan nan nan nan nan nan nan nan nan nan nan nan nan 53 52 nan nan 36 37 34 32 33 38 39 34 29 30 31 31 30 28 26 24 23 22 23 24 25 25 24 25 26 29 33 35 37 38 35 32 29 29 29 28
nan nan nan nan nan nan nan nan nan nan nan nan nan nan nan nan nan nan nan nan nan nan nan nan 55 52 48 45 45 41 36 35 37 40 40 35 34 33 31 30 29 27 26 25 24 25 26 26 27 26 26 29 31 33 33 36 38 37 34 32 30 29 31
nan nan nan nan nan nan nan nan nan nan nan nan nan nan nan nan nan nan nan nan nan nan nan nan nan 56 54 52 51 46 43 40 38 40 42 40 38 36 33 31 31 30 28 25 23 25 25 26 29 27 28 31 31 32 33 35 37 37 35 33 31 33 34
nan nan nan nan nan nan nan nan nan nan nan nan nan nan nan nan nan nan nan nan nan nan nan nan nan nan nan 53 54 52 48 45 42 43 43 44 43 40 36 34 33 27 26 26 27 26 25 25 25 27 29 32 32 32 32 34 36 37 36 34 32 34 34
nan nan nan nan nan nan nan nan nan nan nan nan nan nan nan nan nan nan nan nan nan nan nan nan nan nan nan nan nan 53 51 48 46 45 46 47 47 45 40 37 36 32 31 31 31 29 29 28 28 26 26 29 31 32 33 33 34 36 38 36 35 37 33
nan nan nan nan nan nan nan nan nan nan nan nan nan nan nan nan nan nan nan nan nan nan nan nan nan nan nan nan nan nan 55 53 51 50 49 48 48 48 46 44 41 40 38 38 38 37 35 33 32 31 29 29 30 29 30 33 34 36 38 37 36 36 34
nan nan nan nan nan nan nan nan nan nan nan nan nan nan nan nan nan nan nan nan nan nan nan nan nan nan nan nan nan nan nan 58 57 54 53 52 51 50 50 48 46 44 43 37 40 42 43 42 38 35 34 33 32 31 29 29 31 35 39 38 37 35 33
nan nan nan nan nan nan nan nan nan nan nan nan nan nan nan nan nan nan nan nan nan nan nan nan nan nan nan nan nan nan nan nan nan 58 57 56 56 54 52 52 51 48 45 44 45 46 46 47 49 48 46 45 43 38 35 32 31 30 36 39 39 35 34
nan nan nan nan nan nan nan nan nan nan nan nan nan nan nan nan nan nan nan nan nan nan nan nan nan nan nan nan nan nan nan nan nan nan 59 60 60 60 58 56 53 51 49 47 48 47 48 48 50 52 51 49 47 45 42 41 44 47 47 44 41 38 37
nan nan nan nan nan nan nan nan nan nan nan nan nan nan nan nan nan nan nan nan nan nan nan nan nan nan nan nan nan nan nan nan nan nan nan nan 63 63 60 58 58 56 52 52 50 47 48 51 53 53 52 52 52 50 47 47 46 45 46 52 55 49 44
nan nan nan nan nan nan nan nan nan nan nan nan nan nan nan nan nan nan nan nan nan nan nan nan nan nan nan nan nan nan nan nan nan nan nan nan 59 61 60 60 58 56 55 54 52 52 50 52 53 53 54 52 52 53 51 52 47 43 45 47 41 36 36
nan nan nan nan nan nan nan nan nan nan nan nan nan nan nan nan nan nan nan nan nan nan nan nan nan nan nan nan nan nan nan nan nan nan nan nan nan nan 56 51 52 54 52 52 51 52 53 56 54 53 55 54 52 52 52 55 57 52 46 45 41 38 36
nan nan nan nan nan nan nan nan nan nan nan nan nan nan nan nan nan nan nan nan nan nan nan nan nan nan nan nan nan nan nan nan nan nan nan nan 59 60 58 53 46 46 49 54 62 61 57 60 56 52 53 54 53 52 53 55 55 55 56 55 52 50 46
nan nan nan nan nan nan nan nan nan nan nan nan nan nan nan nan nan nan nan nan nan nan nan nan nan nan nan nan nan nan nan nan nan nan nan 62 62 61 58 57 52 45 42 43 43 52 60 60 57 53 51 51 52 52 57 58 55 57 57 56 54 53 48
nan nan nan nan nan nan nan nan nan nan nan nan nan nan nan nan nan nan nan nan nan nan nan nan nan nan nan nan nan nan nan nan nan nan 61 62 63 63 60 nan 54 51 47 42 41 46 52 54 55 57 54 51 50 53 60 62 57 57 61 59 60 59 56
nan nan nan nan nan nan nan nan nan nan nan nan nan nan nan nan nan nan nan nan nan nan nan nan nan nan nan nan nan nan nan nan nan nan nan 59 61 61 61 59 56 52 51 50 47 44 43 45 46 56 55 51 50 53 59 62 63 65 65 64 63 63 60
nan nan nan nan nan nan nan nan nan nan nan nan nan nan nan nan nan nan nan nan nan nan nan nan nan nan nan nan nan nan nan nan nan nan nan nan nan 56 57 59 57 52 56 56 56 53 50 46 52 53 50 56 56 49 54 62 65 65 66 66 65 63 62
nan nan nan nan nan nan nan nan nan nan nan nan nan nan nan nan nan nan nan nan nan nan nan nan nan nan nan nan nan nan nan nan nan nan nan nan nan 53 53 54 55 52 55 55 55 56 55 55 54 47 48 51 52 50 54 57 64 66 67 68 65 63 61
Wind_Direction
218 212 211 219 218 213 214 224 233 237 239 230 222 223 227 227 225 218 212 211 211 208 206 209 212 216 218 217 221 220 224 229 234 nan nan nan nan nan 230 221 204 213 229 228 246 250 236 236 209 211 205 234 235 239 247 274 296 307 305 296 303 302 292
236 227 223 228 218 208 206 212 218 226 231 226 220 221 223 222 216 210 208 207 209 210 211 213 217 225 226 225 222 221 220 223 229 226 nan nan nan nan 230 221 218 212 212 214 227 225 229 227 211 222 213 223 227 219 231 244 269 287 298 302 299 306 300
237 235 238 234 227 220 212 213 217 219 221 221 219 218 216 214 212 210 211 211 213 216 215 215 219 224 227 227 227 226 225 225 224 228 nan nan nan nan nan nan 230 221 215 213 217 225 220 219 225 217 205 256 256 224 236 242 272 284 292 299 299 304 304
nan 231 233 233 234 236 232 228 234 229 225 222 221 217 213 212 210 212 213 215 217 218 219 219 220 224 226 227 225 225 228 231 nan nan nan nan nan 231 nan nan nan 234 230 225 224 229 230 220 214 203 197 183 165 217 214 259 269 285 296 310 321 317 316
nan nan nan 234 239 242 242 241 249 245 229 222 220 219 216 214 211 208 210 213 218 222 222 220 219 220 223 226 229 229 226 226 228 nan nan nan nan nan nan nan nan nan 226 228 231 236 236 225 230 217 205 198 187 173 211 227 249 287 311 333 338 337 335
nan nan nan nan 227 233 242 245 251 254 237 221 217 218 221 222 215 210 210 212 215 219 221 221 220 222 224 227 230 231 229 224 222 226 227 227 233 nan 231 nan nan nan nan nan nan 233 231 232 232 223 199 214 204 187 201 231 219 262 308 337 337 346 345
nan nan nan nan nan nan 231 236 245 251 236 221 216 216 221 223 217 212 213 213 215 219 221 222 224 224 227 230 233 235 233 226 223 223 222 224 229 234 232 225 nan nan nan nan nan nan 236 233 225 223 218 206 203 202 207 217 226 238 246 342 339 346 350
nan nan nan nan nan nan nan nan 234 243 233 218 216 214 219 220 219 221 220 218 217 219 222 224 226 227 229 230 231 233 231 229 229 231 227 228 229 233 234 227 221 nan nan nan nan nan nan nan 232 228 229 221 203 206 205 209 213 261 236 256 333 347 353
nan nan nan nan nan nan nan nan nan 231 225 215 215 216 215 218 223 226 225 220 220 220 222 225 227 228 228 228 227 227 226 225 227 231 235 237 231 230 232 230 223 nan 219 221 nan nan 234 nan nan nan 230 231 231 201 208 204 206 186 261 253 289 349 345
nan nan nan nan nan nan nan nan nan nan nan 213 211 214 214 220 225 227 224 223 225 223 222 222 222 222 224 224 223 222 220 221 225 230 235 238 233 227 224 227 224 219 216 216 221 230 231 226 nan nan nan 231 229 221 219 209 197 202 242 301 276 310 340
nan nan nan nan nan nan nan nan nan nan nan nan 215 215 216 217 222 226 226 225 227 226 222 221 220 218 217 214 215 217 219 225 225 227 230 231 228 224 218 218 221 220 220 220 nan 225 227 226 nan nan nan 223 234 230 224 226 199 230 223 250 275 270 306
nan nan nan nan nan nan nan nan nan nan nan nan nan 216 219 221 219 219 223 226 228 223 220 220 218 214 212 209 210 213 218 223 224 225 227 227 219 215 208 209 219 224 nan nan nan nan nan 226 nan nan nan 227 230 233 236 233 213 207 242 243 254 271 279
nan nan nan nan nan nan nan nan nan nan nan nan nan nan 221 223 223 220 219 219 220 219 218 220 216 208 205 205 209 214 219 223 223 225 224 222 213 206 199 201 215 228 234 nan nan nan nan nan nan nan 234 230 227 232 239 240 233 204 238 249 256 266 279
nan nan nan nan nan nan nan nan nan nan nan nan nan nan nan 227 226 222 221 221 219 216 215 216 212 206 204 206 210 214 221 226 226 226 225 217 209 201 197 201 210 222 233 237 233 230 230 nan nan 234 236 234 228 229 238 239 235 216 221 226 237 246 258
nan nan nan nan nan nan nan nan nan nan nan nan nan nan nan nan nan 226 223 222 222 219 214 212 213 213 211 212 217 222 223 225 226 229 228 219 211 204 200 202 207 217 227 230 232 234 236 238 240 240 239 240 233 228 232 238 233 235 224 233 233 232 244
nan nan nan nan nan nan nan nan nan nan nan nan nan nan nan nan nan nan 224 225 225 217 209 208 212 213 213 217 225 231 231 228 231 237 235 226 217 213 208 205 208 215 224 225 227 232 236 240 242 244 245 245 242 236 233 234 238 234 234 232 239 245 249
nan nan nan nan nan nan nan nan nan nan nan nan nan nan nan nan nan nan nan 222 221 211 204 208 212 212 216 228 235 237 234 229 228 231 230 225 222 220 216 212 210 215 222 225 227 232 237 241 245 244 243 244 246 245 241 237 235 237 239 235 236 248 248
nan nan nan nan nan nan nan nan nan nan nan nan nan nan nan nan nan nan nan nan nan nan nan nan nan 214 226 236 241 244 241 233 228 228 226 224 224 224 221 216 214 217 220 222 224 229 236 243 246 248 247 243 244 244 245 245 239 236 239 239 238 239 246
nan nan nan nan nan nan nan nan nan nan nan nan nan nan nan nan nan nan nan nan nan nan nan nan nan 217 228 239 246 250 243 233 227 226 226 227 232 234 230 225 222 225 225 224 224 227 233 239 245 249 251 250 247 244 244 244 243 239 236 235 242 241 240
nan nan nan nan nan nan nan nan nan nan nan nan nan nan nan nan nan nan nan nan nan nan nan 215 217 nan nan 239 249 251 247 235 228 230 230 229 235 239 237 236 235 236 236 234 232 232 234 236 241 247 252 256 256 251 246 243 244 242 238 235 236 241 245
nan nan nan nan nan nan nan nan nan nan nan nan nan nan nan nan nan nan nan nan nan nan nan nan 224 226 232 243 248 250 248 242 237 240 243 240 238 237 234 236 240 240 239 241 241 238 239 238 240 242 247 251 255 259 255 247 242 243 242 239 239 240 240
nan nan nan nan nan nan nan nan nan nan nan nan nan nan nan nan nan nan nan nan nan nan nan nan nan 231 233 239 245 247 248 245 242 242 244 243 242 243 238 233 234 237 237 238 246 248 246 246 243 241 244 248 252 257 259 251 242 240 241 242 239 240 242
nan nan nan nan nan nan nan nan nan nan nan nan nan nan nan nan nan nan nan nan nan nan nan nan nan nan nan 235 239 242 243 244 242 239 240 241 242 244 242 237 234 236 237 236 240 247 251 254 254 248 245 248 251 253 256 252 244 239 240 242 242 246 247
nan nan nan nan nan nan nan nan nan nan nan nan nan nan nan nan nan nan nan nan nan nan nan nan nan nan nan nan nan 238 240 241 241 239 238 239 241 242 244 245 242 239 240 240 239 243 249 253 255 254 252 254 255 256 253 252 245 242 241 241 242 246 248
nan nan nan nan nan nan nan nan nan nan nan nan nan nan nan nan nan nan nan nan nan nan nan nan nan nan nan nan nan nan 238 239 239 239 239 239 240 241 243 244 243 240 241 244 243 242 244 249 253 254 252 250 253 259 262 258 249 244 244 243 244 247 250
nan nan nan nan nan nan nan nan nan nan nan nan nan nan nan nan nan nan nan nan nan nan nan nan nan nan nan nan nan nan nan 237 237 238 240 241 241 241 241 243 242 239 238 243 245 244 243 244 246 249 248 247 249 253 256 259 258 253 249 249 248 249 253
nan nan nan nan nan nan nan nan nan nan nan nan nan nan nan nan nan nan nan nan nan nan nan nan nan nan nan nan nan nan nan nan nan 236 238 240 241 241 241 243 244 241 238 241 244 246 246 245 245 246 246 244 244 242 240 242 246 251 253 252 252 251 251
nan nan nan nan nan nan nan nan nan nan nan nan nan nan nan nan nan nan nan nan nan nan nan nan nan nan nan nan nan nan nan nan nan nan 238 239 241 243 241 241 242 241 241 242 243 247 248 249 247 245 246 246 245 245 245 244 244 240 240 243 247 249 246
nan nan nan nan nan nan nan nan nan nan nan nan nan nan nan nan nan nan nan nan nan nan nan nan nan nan nan nan nan nan nan nan nan nan nan nan 239 242 243 242 240 238 237 241 241 245 249 250 247 244 244 244 244 244 244 244 248 249 247 242 238 234 236
nan nan nan nan nan nan nan nan nan nan nan nan nan nan nan nan nan nan nan nan nan nan nan nan nan nan nan nan nan nan nan nan nan nan nan nan 240 241 243 244 243 240 237 238 240 245 248 251 247 244 241 241 243 243 243 245 248 249 251 254 255 248 238
nan nan nan nan nan nan nan nan nan nan nan nan nan nan nan nan nan nan nan nan nan nan nan nan nan nan nan nan nan nan nan nan nan nan nan nan nan nan 243 247 245 240 237 237 237 243 247 250 248 246 241 239 240 242 241 243 245 245 248 253 253 249 243
nan nan nan nan nan nan nan nan nan nan nan nan nan nan nan nan nan nan nan nan nan nan nan nan nan nan nan nan nan nan nan nan nan nan nan nan 241 242 241 242 244 241 238 234 227 228 236 244 244 245 244 240 239 241 243 244 244 245 246 245 245 246 242
nan nan nan nan nan nan nan nan nan nan nan nan nan nan nan nan nan nan nan nan nan nan nan nan nan nan nan nan nan nan nan nan nan nan nan 239 241 242 241 240 239 241 241 239 238 239 242 243 240 242 245 244 243 243 243 243 242 243 244 246 245 247 247
nan nan nan nan nan nan nan nan nan nan nan nan nan nan nan nan nan nan nan nan nan nan nan nan nan nan nan nan nan nan nan nan nan nan 238 237 238 240 241 nan 238 243 248 245 243 246 250 250 246 243 247 247 250 250 246 242 241 241 242 243 244 244 244
nan nan nan nan nan nan nan nan nan nan nan nan nan nan nan nan nan nan nan nan nan nan nan nan nan nan nan nan nan nan nan nan nan nan nan 238 237 238 240 240 239 240 247 251 251 250 252 251 248 243 244 247 251 254 248 243 241 242 243 244 245 246 245
nan nan nan nan nan nan nan nan nan nan nan nan nan nan nan nan nan nan nan nan nan nan nan nan nan nan nan nan nan nan nan nan nan nan nan nan nan 238 238 240 240 241 244 247 248 248 249 249 242 240 240 238 241 250 251 244 241 242 242 244 246 246 247
nan nan nan nan nan nan nan nan nan nan nan nan nan nan nan nan nan nan nan nan nan nan nan nan nan nan nan nan nan nan nan nan nan nan nan nan nan 237 238 238 241 245 244 243 244 244 245 247 246 246 246 243 242 248 251 246 242 242 242 243 244 246 248